Weather History for North Myrtle Beach, SC

Change the Weather History Date:

Friday, July 5, 2013

  Actual Average Record
Temperature  
Mean Temperature 83 °F 80 °F  
Max Temperature 85 °F 88 °F 101 °F (1990)
Min Temperature 80 °F 73 °F 59 °F (1952)
Degree Days  
Heating Degree Days 0 0  
Month to date heating degree days 0 0  
Since 1 June heating degree days 0 0  
Since 1 July heating degree days 0 0  
Cooling Degree Days 18 15  
Month to date cooling degree days 78 75  
Year to date cooling degree days 645 644  
Since 1 June cooling degree days 465 432  
Growing Degree Days 32 (Base 50)    
Moisture  
Dew Point 74 °F    
Average Humidity 80    
Maximum Humidity 85    
Minimum Humidity 74    
Precipitation  
Precipitation 0.00 in 0.18 in 0.14 in (2001)
Month to date precipitation 2.28 0.89  
Year to date precipitation 32.17 22.93  
Sea Level Pressure  
Sea Level Pressure 30.24 in    
Wind  
Wind Speed 9 mph (SSE)    
Max Wind Speed 15 mph    
Max Gust Speed 21 mph    
Visibility 10 miles    
Events      
T = Trace of Precipitation, MM = Missing Value Source: NWS Daily Summary

Daily Weather History Graph

Daily Weather History Graph

Search for Another Location

Airport:

Trip Planner

Search our weather history database for the weather conditions in past years. The results will help you decide how hot, cold, wet, or windy it might be!

Date:

Astronomy

Jul. 05, 2013 Rise Set
Actual Time 6:09 AM EDT 8:29 PM EDT
Civil Twilight 5:40 AM EDT 8:58 PM EDT
Nautical Twilight 5:05 AM EDT 9:33 PM EDT
Astronomical Twilight 4:26 AM EDT 10:11 PM EDT
Moon 4:05 AM EDT (7/5) 6:24 PM EDT (7/5)
Length of Visible Light 15h 17m
Length of Day
14h 19m
Waning Crescent, 6% of the Moon is Illuminated
Jul 5
Waning Crescent
Jul 8
New
Jul 15
First Quarter
Jul 22
Full
Jul 29
Last Quarter

Hourly Weather History & Observations

Time (EDT) Temp. Heat Index Dew Point Humidity Pressure Visibility Wind Dir Wind Speed Gust Speed Precip Events Conditions
12:53 AM 80.1 °F 84.5 °F 73.9 °F 81% 30.25 in 10.0 mi SSE 6.9 mph - N/A   Partly Cloudy
1:53 AM 80.1 °F 84.5 °F 73.9 °F 81% 30.25 in 10.0 mi South 8.1 mph - N/A   Scattered Clouds
2:37 AM 80.6 °F 86.2 °F 75.2 °F 84% 30.23 in 10.0 mi SSE 6.9 mph - N/A   Mostly Cloudy
2:53 AM 80.1 °F 85.1 °F 75.0 °F 85% 30.23 in 10.0 mi SSE 6.9 mph - N/A   Mostly Cloudy
3:19 AM 80.6 °F 86.2 °F 75.2 °F 84% 30.23 in 10.0 mi SSE 5.8 mph - N/A   Scattered Clouds
3:53 AM 80.1 °F 84.5 °F 73.9 °F 81% 30.23 in 10.0 mi SSE 8.1 mph - N/A   Scattered Clouds
4:41 AM 80.6 °F 85.4 °F 73.4 °F 79% 30.22 in 10.0 mi SSE 5.8 mph - N/A   Mostly Cloudy
4:53 AM 80.1 °F 85.1 °F 75.0 °F 85% 30.22 in 10.0 mi SSE 6.9 mph - N/A   Mostly Cloudy
5:53 AM 80.1 °F 85.1 °F 75.0 °F 85% 30.24 in 10.0 mi South 5.8 mph - N/A   Mostly Cloudy
6:40 AM 80.6 °F 86.2 °F 75.2 °F 84% 30.24 in 10.0 mi SSE 6.9 mph - N/A   Scattered Clouds
6:53 AM 80.1 °F 85.1 °F 75.0 °F 85% 30.25 in 10.0 mi South 8.1 mph - N/A   Scattered Clouds
7:53 AM 81.0 °F 86.7 °F 75.0 °F 82% 30.26 in 10.0 mi South 8.1 mph - N/A   Mostly Cloudy
8:24 AM 82.4 °F 89.5 °F 75.2 °F 79% 30.25 in 10.0 mi SSE 8.1 mph - N/A   Scattered Clouds
8:53 AM 82.0 °F 89.4 °F 75.9 °F 82% 30.27 in 10.0 mi SSE 6.9 mph - N/A   Mostly Cloudy
9:22 AM 82.4 °F 89.5 °F 75.2 °F 79% 30.26 in 10.0 mi South 8.1 mph - N/A   Scattered Clouds
9:53 AM 82.9 °F 90.8 °F 75.9 °F 79% 30.27 in 10.0 mi South 9.2 mph - N/A   Scattered Clouds
10:08 AM 82.4 °F 89.5 °F 75.2 °F 79% 30.27 in 10.0 mi SSE 9.2 mph - N/A   Mostly Cloudy
10:53 AM 82.9 °F 90.8 °F 75.9 °F 79% 30.28 in 10.0 mi SE 8.1 mph - N/A   Mostly Cloudy
11:53 AM 82.9 °F 90.2 °F 75.0 °F 77% 30.27 in 10.0 mi SSE 11.5 mph 16.1 mph N/A   Scattered Clouds
12:33 PM 84.2 °F 92.3 °F 75.2 °F 74% 30.27 in 10.0 mi SSE 10.4 mph 17.3 mph N/A   Mostly Cloudy
12:53 PM 82.9 °F 90.8 °F 75.9 °F 79% 30.28 in 10.0 mi South 11.5 mph - N/A   Mostly Cloudy
1:53 PM 82.9 °F 90.8 °F 75.9 °F 79% 30.27 in 10.0 mi South 11.5 mph - N/A   Mostly Cloudy
2:09 PM 84.2 °F 92.3 °F 75.2 °F 74% 30.26 in 10.0 mi SSE 10.4 mph - N/A   Scattered Clouds
2:53 PM 84.0 °F 91.9 °F 75.0 °F 74% 30.25 in 10.0 mi SSE 10.4 mph - N/A   Clear
3:53 PM 84.0 °F 91.9 °F 75.0 °F 74% 30.23 in 10.0 mi SE 13.8 mph 20.7 mph N/A   Mostly Cloudy
4:01 PM 84.2 °F 92.3 °F 75.2 °F 74% 30.22 in 10.0 mi SSE 10.4 mph 20.7 mph N/A   Mostly Cloudy
4:35 PM 84.2 °F 92.3 °F 75.2 °F 74% 30.21 in 10.0 mi SSE 11.5 mph 17.3 mph N/A   Scattered Clouds
4:53 PM 82.9 °F 89.4 °F 73.9 °F 74% 30.21 in 10.0 mi SSE 11.5 mph 18.4 mph N/A   Scattered Clouds
5:53 PM 82.9 °F 89.4 °F 73.9 °F 74% 30.21 in 10.0 mi SSE 11.5 mph - N/A   Overcast
6:53 PM 82.0 °F 87.4 °F 73.0 °F 74% 30.21 in 10.0 mi South 11.5 mph 17.3 mph N/A   Mostly Cloudy
7:14 PM 82.4 °F 88.2 °F 73.4 °F 74% 30.21 in 10.0 mi SSE 12.7 mph - N/A   Scattered Clouds
7:53 PM 81.0 °F 85.8 °F 73.0 °F 77% 30.22 in 10.0 mi South 9.2 mph - N/A   Partly Cloudy
8:53 PM 81.0 °F 85.8 °F 73.0 °F 77% 30.22 in 10.0 mi South 6.9 mph - N/A   Mostly Cloudy
9:03 PM 80.6 °F 85.4 °F 73.4 °F 79% 30.22 in 10.0 mi South 10.4 mph - N/A   Scattered Clouds
9:39 PM 80.6 °F 85.4 °F 73.4 °F 79% 30.24 in 10.0 mi South 10.4 mph 16.1 mph N/A   Mostly Cloudy
9:53 PM 81.0 °F 85.8 °F 73.0 °F 77% 30.25 in 10.0 mi South 8.1 mph - N/A   Mostly Cloudy
10:10 PM 80.6 °F 85.4 °F 73.4 °F 79% 30.25 in 10.0 mi South 6.9 mph - N/A   Scattered Clouds
10:20 PM 80.6 °F 85.4 °F 73.4 °F 79% 30.25 in 10.0 mi South 9.2 mph - N/A   Mostly Cloudy
10:53 PM 80.1 °F 84.2 °F 73.0 °F 79% 30.25 in 10.0 mi South 9.2 mph - N/A   Scattered Clouds
11:53 PM 80.1 °F 84.2 °F 73.0 °F 79% 30.26 in 10.0 mi South 6.9 mph - N/A   Partly Cloudy